Zurück zum Katalog

INTELSAT 704

AktivKommunikationGEO
NORAD 23461·PAYLOAD· XX

Gestartet Jan 10, 1995 von Cape Canaveral Space Force Station

Loading…

TLE

AktuellSource: Space-Track

Epoche: Sep 14, 2026, 10:44 UTC

1 23461U 95001A   26257.44763794  .00000031  00000-0  00000-0 0  9991
2 23461  12.0149  34.9293 0013386 167.5320  28.3417  0.99177055115364

Verfolge INTELSAT 704 in Echtzeit mit AllMySat

Download on the App Store